Tracking 29892 objects as of 21-Nov-2024
HD Live streaming from Space Station
objects crossing your sky now

COSMOS 1275 DEB

Track COSMOS 1275 DEB now!
10-day predictions


NORAD ID: 39948
Int'l Code: 1981-053NQ
Perigee: 913.3 km
Apogee: 1,202.1 km
Inclination: 83.1 °
Period: 106.2 minutes
Semi major axis: 7428 km
RCS: 0.0158 m2 (small)
Launch date: April 25, 1981
Source: Commonwealth of Independent States (former USSR) (CIS)
Launch site: PLESETSK MISSILE AND SPACE COMPLEX (PKMTR)

Note: This is SATELLITE DEBRIS
Your satellite tracking list
Your tracking list is empty




NASA's NSSDC Master Catalog

Two Line Element Set (TLE):
1 39948U 81053NJ  24323.80687736  .00001380  00000-0  17299-2 0  9991
2 39948  83.0644 333.7097 0194352 157.7634  16.6042 13.55920450516150
Source of the keplerian elements: AFSPC